Simultaneous Nadir Overpasses (SNOs) Predictions

Prediction of SNOs between METOP-B and TERRA Satellite Orbit:

Table of predicted SNOs for the next 14.0 days since TLE Epoch: 12/26/2015
Index Date (METOP-B) Time (METOP-B) Lat,Lon (METOP-B) SZA (METOP-B ) Date (TERRA) Time (TERRA) Lat,Lon (TERRA) SZA (TERRA ) Distance(km) Time Diff (sec)
1 12/26/2015 08:06:33 -81.34, -73.87 72.64 12/26/2015 08:07:38 -81.34, -73.83 72.60 0.86 65
2 12/26/2015 08:57:12 81.35, 94.04 107.43 12/26/2015 08:57:04 81.35, 93.93 107.42 1.83 8
3 12/29/2015 03:40:54 -81.34, -7.42 72.79 12/29/2015 03:41:55 -81.35, -7.36 72.75 1.18 61
4 12/29/2015 04:31:33 81.35, 160.47 107.28 12/29/2015 04:31:21 81.35, 160.38 107.26 1.61 12
5 12/31/2015 23:15:15 -81.34, 58.99 73.01 12/31/2015 23:16:12 -81.34, 59.00 72.98 0.22 57
6 01/01/2016 00:05:54 81.35,-133.14 107.05 01/01/2016 00:05:38 81.35,-133.29 107.03 2.49 16
7 01/03/2016 18:49:35 -81.34, 125.34 73.30 01/03/2016 18:50:28 -81.33, 125.24 73.29 2.03 53
8 01/03/2016 19:40:14 81.35, -66.81 106.77 01/03/2016 19:39:53 81.35, -66.69 106.77 2.05 21
9 01/06/2016 14:23:56 -81.34,-168.35 73.64 01/06/2016 14:24:44 -81.34,-168.26 73.62 1.51 48




NCC Satellite Simultaneous Nadir Overpasses (SNOs) Prediction Service
